Location: Milton
(43.5183°N, 79.8775°W)
Time: 09:40:12
(UTC+00:00)

Gurwin Techsat 1B - Pass Details

Date: 22 April 2024
Orbit: 811 x 812 km, 98.9° (Epoch: 29 May)

Event Time Altitude Azimuth Distance (km) Brightness Sun altitude
Rises 09:35:56 0° 8° (N) 3,346 12.3 -9.0°
Reaches altitude 10° 09:38:22 10° 2° (N) 2,410 11.5 -8.6°
Maximum altitude 09:43:23 44° 292° (WNW) 1,111 9.1 -7.8°
Drops below altitude 10° 09:48:23 10° 221° (SW) 2,394 10.5 -7.0°
Enters shadow 09:49:46 - 217° (SW) 2,922 11.0 -6.8°
